#timestamp,LO_Frequency,Hit,StdDev 
1514476815.9,286046993.9,N
1514476835.7,286046993.4,N
1514476855.5,286046992.9,N
1514476875.4,286046992.8,N
1514476895.2,286046987.0,Y
1514476915.0,286046995.8,P
1514476915.9,286046995.8,P
1514476935.8,286046993.6,P
1514476955.6,286046999.5,N
1514476975.4,286046996.8,N
1514476995.3,286046996.9,N
1514477015.1,286046995.6,N
1514477016.0,286046995.6,N
1514477035.8,286046994.2,Y
1514477055.7,286046999.5,P
1514477075.5,286047002.8,N
1514477095.3,286047002.1,N
1514477115.1,286047000.2,N
1514477135.9,286047003.1,N
1514477155.7,286047003.8,N
1514477175.5,286047004.8,N
1514477195.4,286047004.8,N
1514477215.2,286047012.0,Y
1514477235.0,286047011.5,P
1514477235.9,286047011.5,N
1514477255.8,286047015.6,P
1514477275.6,286047014.9,N
1514477295.4,286047012.7,N
1514477315.3,286047013.4,N
1514477335.1,286047011.0,N
1514477336.0,286047011.0,N
1514477355.8,286047011.0,N
1514477375.7,286047011.1,Y
1514477395.5,286047001.5,P
1514477415.3,286047001.3,N
1514477435.2,286047003.4,N
1514477455.9,286047005.9,N
1514477475.7,286047003.2,N
1514477495.6,286047004.0,N
1514477515.4,286047005.5,N
1514477535.2,286047009.1,N
1514477555.1,286047012.2,Y
1514477556.0,286047012.2,P
1514477575.8,286047004.0,N
1514477595.6,286047002.6,N
1514477615.5,286047003.3,N
1514477635.3,286047007.2,N
1514477655.1,286047006.4,N
1514477675.8,286047005.7,N
1514477695.7,286047005.2,N
1514477715.5,286047007.6,N
1514477735.3,286047005.5,N
1514477755.2,286047006.7,N
1514477775.9,286047004.6,N
1514477795.7,286047004.3,N
1514477815.6,286047000.6,N
1514477835.4,286047001.6,N
1514477855.2,286047000.6,N
1514477875.1,286047002.7,N
1514477876.0,286047002.7,N
1514477895.8,286047004.3,N
1514477915.6,286047004.1,N
1514477935.4,286047004.1,N
1514477955.3,286047007.4,N
1514477975.1,286047007.6,Y
1514477995.8,286047000.5,P
1514478015.7,286047001.5,N
1514478035.5,286047006.9,P
1514478055.4,286047013.0,Y
1514478075.2,286047009.8,P
1514478095.0,286047009.0,N
1514478095.9,286047009.0,P
1514478115.8,286047008.9,Y
1514478135.6,286047001.6,P
1514478155.4,286047007.5,N
1514478175.2,286047008.5,N
1514478195.1,286047011.3,Y
1514478196.0,286047011.3,P
1514478215.8,286047011.8,P
1514478235.7,286047012.0,P
1514478255.5,286047010.4,Y
1514478275.3,286047002.5,P
1514478295.2,286047004.5,N
1514478315.9,286047007.2,N
1514478335.7,286047007.3,N
1514478355.6,286047006.5,N
1514478375.4,286047006.5,N
1514478395.2,286047010.8,Y
1514478415.1,286047001.4,P
1514478416.0,286047001.4,N
1514478435.8,286047003.2,N
1514478455.6,286047002.5,N
1514478475.5,286047001.9,N
1514478495.3,286047000.3,N
1514478515.1,286046999.0,N
1514478535.8,286047001.0,N
1514478555.7,286047001.5,N
1514478575.5,286047002.5,N
1514478595.3,286047003.6,N
1514478615.2,286046996.9,N
1514478635.9,286046995.0,N
1514478655.7,286046997.2,N
1514478675.6,286046996.2,N
1514478695.4,286046994.4,N
1514478715.2,286046988.6,Y
1514478735.1,286046985.4,P
1514478736.0,286046985.4,N
1514478755.8,286046982.3,N
1514478775.6,286046986.5,N
1514478795.5,286046984.5,N
1514478815.3,286046986.8,N
1514478835.1,286046984.1,N
1514478855.9,286046985.2,N
1514478875.7,286046986.4,N
1514478895.5,286046986.5,N
1514478915.4,286046984.7,Y
1514478935.2,286046994.8,P
1514478955.0,286046989.0,N
1514478955.9,286046989.0,P
1514478975.8,286046990.2,Y
1514478995.6,286047000.4,P
1514479015.4,286046997.7,N
1514479035.3,286046997.9,N
1514479055.1,286046995.5,N
1514479056.0,286046995.5,N
1514479075.8,286046994.3,N
1514479095.7,286046996.3,N
1514479115.5,286046990.2,Y
1514479135.3,286046996.4,P
1514479155.2,286046995.4,P
1514479175.9,286046999.5,N
1514479195.7,286046998.7,N
1514479215.6,286046999.3,N
1514479235.4,286046993.4,Y
1514479255.2,286046995.2,P
1514479275.1,286046992.2,P
1514479276.0,286046992.2,P
1514479295.8,286046993.3,Y
1514479315.6,286047000.3,P
1514479335.5,286046999.3,N
1514479355.3,286046997.4,N
1514479375.1,286046993.3,N
1514479395.9,286046994.7,N
1514479415.7,286046991.9,Y
1514479435.5,286046999.4,P
1514479455.4,286047004.3,N
1514479475.2,286047002.2,N
1514479495.0,286046999.1,N
1514479495.9,286046999.1,N
1514479515.8,286046995.8,N
1514479535.6,286046994.6,N
1514479555.4,286046995.6,N
1514479575.2,286046998.3,N
1514479595.1,286046996.5,N
1514479596.0,286046996.5,N
1514479615.8,286046995.5,N
1514479635.6,286046996.5,N
1514479655.5,286046999.5,N
1514479675.3,286046995.0,N
1514479695.1,286046997.7,N
1514479715.9,286046995.7,N
1514479735.7,286046996.3,N
1514479755.5,286046997.3,N
1514479775.4,286046996.7,N
1514479795.2,286047000.8,N
1514479815.0,286047001.0,N
1514479815.9,286047001.0,N
1514479835.8,286047000.1,N
1514479855.6,286047001.2,N
1514479875.4,286047000.3,N
1514479895.2,286047001.4,N
1514479915.1,286047005.5,N
1514479916.0,286047005.5,N
1514479935.8,286047005.9,N
1514479955.6,286047005.0,N
1514479975.5,286047009.1,N
1514479995.3,286047008.5,N
1514480015.1,286047008.9,N
1514480035.9,286047008.7,N
1514480055.7,286047006.8,N
1514480075.5,286047006.8,N
1514480095.4,286047004.7,N
1514480115.2,286047005.2,N
1514480135.0,286047005.5,N
1514480135.9,286047005.5,N
1514480155.8,286047001.5,N
1514480175.6,286046999.8,N
1514480195.4,286046997.0,N
1514480215.3,286046997.4,N
1514480235.1,286046999.3,N
1514480236.0,286046999.3,N
1514480255.8,286046999.3,N
1514480275.6,286046995.6,N
1514480295.5,286046996.0,N
1514480315.3,286046991.9,N
1514480335.1,286046988.7,N
1514480355.9,286046990.9,N
1514480375.7,286046989.7,N
1514480395.5,286046983.7,N
